K5EBQ Weather Reports


time (UTC)temp
F
wind
direction
speed
knots
gust
knots
rain 1hr
in
rain 24hr
in
rain mn
in
humidity
%
barometer
mb
20260507040038 72 360 0.0 0.0 0.00 0.01 0.01 82 1010.5
20260507034535 72 300 0.0 0.0 0.00 0.01 0.01 81 1010.3
20260507033033 73 345 0.0 0.0 0.00 0.01 0.01 81 1010.2
20260507031529 73 313 0.0 0.0 0.00 0.01 0.01 81 1009.7
20260507030027 73 355 0.0 0.0 0.00 0.01 0.01 82 1009.4
20260507024525 74 355 0.0 0.0 0.00 0.01 0.01 82 1009.2
20260507023021 74 355 0.0 0.0 0.00 0.01 0.01 83 1008.7
20260507021521 74 350 0.0 0.0 0.00 0.01 0.01 83 1008.5
20260507020020 75 5 0.0 0.0 0.00 0.01 0.01 83 1008.4
20260507014523 75 349 0.0 0.0 0.00 0.01 0.01 83 1008.0
20260507013014 76 360 0.0 0.0 0.01 0.01 0.01 83 1007.9
20260507011513 76 43 0.0 0.0 0.01 0.01 0.01 84 1007.5
20260507010013 77 355 0.0 0.0 0.01 0.01 0.01 84 1007.3
20260507004516 78 305 0.0 0.0 0.01 0.01 0.01 84 1006.9
20260507003011 82 24 0.0 0.0 0.00 0.00 0.00 79 1006.6
20260507001514 85 242 0.0 0.0 0.00 0.00 0.00 82 1006.1
20260507000011 85 261 0.0 0.0 0.00 0.00 0.00 82 1006.0
20260506234513 86 197 0.0 0.0 0.00 0.00 0.00 79 1005.9
20260506233008 86 159 0.0 0.0 0.00 0.00 0.00 76 1005.8
20260506231509 87 159 0.0 0.0 0.00 0.00 0.00 75 1005.8
20260506230009 87 208 0.0 0.0 0.00 0.00 0.00 75 1005.6
20260506224507 87 212 0.0 0.0 0.00 0.00 0.00 76 1005.6
20260506223007 87 240 0.0 0.0 0.00 0.00 0.00 75 1005.6
20260506221507 87 209 0.0 0.0 0.00 0.00 0.00 75 1005.5
20260506220015 87 224 0.0 0.0 0.00 0.00 0.00 76 1005.4
20260506214506 87 198 0.0 0.0 0.00 0.00 0.00 74 1005.5
20260506213004 88 217 0.0 0.0 0.00 0.00 0.00 74 1005.6
20260506211508 87 232 0.0 0.0 0.00 0.00 0.00 75 1005.4
20260506210007 86 209 0.0 0.0 0.00 0.00 0.00 77 1005.7
20260506204502 87 219 0.0 0.0 0.00 0.00 0.00 76 1006.0
20260506203004 87 194 0.0 0.0 0.00 0.00 0.00 74 1006.0
20260506201600 87 165 0.0 0.0 0.00 0.00 0.00 75 1006.1
20260506200058 87 220 0.0 0.0 0.00 0.00 0.00 75 1006.1
20260506194628 86 159 0.0 0.0 0.00 0.00 0.00 77 1006.2
20260506194527 86 159 0.0 0.0 0.00 0.00 0.00 77 1006.2
20260506193104 86 242 0.0 0.0 0.00 0.00 0.00 79 1006.3
20260506191556 86 211 0.0 0.0 0.00 0.00 0.00 77 1006.7
20260506190100 87 142 0.0 0.0 0.00 0.00 0.00 77 1006.8
20260506184552 86 211 0.0 0.0 0.00 0.00 0.00 78 1006.9
20260506183050 85 240 0.0 0.0 0.00 0.00 0.00 80 1007.0
20260506181548 84 219 0.0 0.0 0.00 0.00 0.00 80 1007.4
20260506180100 84 256 0.0 0.0 0.00 0.00 0.00 80 1007.8
20260506174545 83 161 0.0 0.0 0.00 0.00 0.00 82 1008.0
20260506173043 83 273 0.0 0.0 0.00 0.00 0.00 82 1008.3
20260506171541 82 205 0.0 0.0 0.00 0.00 0.00 84 1008.3
20260506170041 82 150 0.0 0.0 0.00 0.00 0.00 85 1008.4
20260506164535 81 183 0.0 0.0 0.00 0.00 0.00 85 1008.5
20260506163055 81 160 0.0 0.0 0.00 0.00 0.00 86 1008.4
20260506161533 81 184 0.0 0.0 0.00 0.00 0.00 86 1008.0
20260506160031 81 163 0.0 0.0 0.00 0.00 0.00 85 1008.0
20260506154527 81 147 0.0 0.0 0.00 0.00 0.00 86 1007.9
20260506153024 81 165 0.0 0.0 0.00 0.00 0.00 86 1007.9
20260506151523 81 165 0.0 0.0 0.00 0.00 0.00 87 1007.5
20260506150026 80 204 0.0 0.0 0.00 0.00 0.00 87 1007.4
20260506144520 80 125 0.0 0.0 0.00 0.00 0.00 88 1007.2
20260506143018 80 185 0.0 0.0 0.00 0.00 0.00 89 1006.9
20260506141515 79 115 0.0 0.0 0.00 0.00 0.00 90 1007.0
20260506140013 78 130 0.0 0.0 0.00 0.00 0.00 92 1007.2
20260506134509 78 159 0.0 0.0 0.00 0.00 0.00 93 1007.2
20260506133009 77 161 0.0 0.0 0.00 0.00 0.00 94 1007.2
20260506131513 77 161 0.0 0.0 0.00 0.00 0.00 94 1007.5
20260506130007 77 161 0.0 0.0 0.00 0.00 0.00 94 1007.3
20260506124506 76 130 0.0 0.0 0.00 0.00 0.00 94 1007.3
20260506123005 76 90 0.0 0.0 0.00 0.00 0.00 94 1007.2
20260506121504 76 130 0.0 0.0 0.00 0.00 0.00 94 1007.1
20260506120006 76 130 0.0 0.0 0.00 0.00 0.00 95 1006.9
20260506114504 76 130 0.0 0.0 0.00 0.00 0.00 94 1006.7
20260506113003 76 130 0.0 0.0 0.00 0.00 0.00 94 1006.6
20260506111502 76 151 0.0 0.0 0.00 0.00 0.00 94 1006.3
20260506110002 76 151 0.0 0.0 0.00 0.00 0.00 94 1006.1
20260506104603 76 151 0.0 0.0 0.00 0.00 0.00 93 1006.1
20260506104500 76 150 0.0 0.0 0.00 0.00 0.00 93 1006.1
20260506103100 76 215 0.0 0.0 0.00 0.00 0.00 93 1006.2
20260506101605 76 215 0.0 0.0 0.00 0.00 0.00 93 1006.1
20260506100058 76 148 0.0 0.0 0.00 0.00 0.00 92 1005.8
20260506094622 76 182 0.0 0.0 0.00 0.00 0.00 92 1005.8
20260506093057 76 155 0.0 0.0 0.00 0.00 0.00 92 1005.7
20260506091555 76 163 0.0 0.0 0.00 0.00 0.00 91 1005.7
20260506090053 77 172 0.0 0.0 0.00 0.00 0.00 91 1005.9
20260506084551 77 150 0.0 0.0 0.00 0.00 0.00 91 1005.9
20260506083049 77 159 0.0 0.0 0.00 0.00 0.00 91 1006.0
20260506081548 77 171 0.0 0.0 0.00 0.00 0.00 91 1006.1
20260506073046 77 167 0.0 0.0 0.00 0.00 0.00 91 1006.5
20260506071545 77 166 0.0 0.0 0.00 0.00 0.00 91 1006.7
20260506061539 77 124 0.0 0.0 0.00 0.00 0.00 90 1007.0
20260506044541 78 164 0.0 0.0 0.00 0.00 0.00 89 1007.0
20260506043031 78 165 0.0 0.0 0.00 0.00 0.00 88 1007.0
20260506041531 78 180 0.0 0.0 0.00 0.00 0.00 87 1006.8